Regional Weather Roundup
Issued by NWS

Home | Current Version | Previous Version | Text Only | Print | Product List | Glossary Off
Versions: 1 2 3 4 5 6 7 8 9 10 11 12 13 14 15 16 17 18 19 20 21 22 23 24 25 26 27 28 29 30 31 32 33 34 35 36 37 38 39 40 41 42 43 44 45 46 47 48 49 50

161
ASUS45 KBOI 260310
RWRID

IDAHO REGIONAL WEATHER ROUNDUP
NATIONAL WEATHER SERVICE BOISE ID
900 PM MDT SUN SEP 25 2016

NOTE: "FAIR" INDICATES FEW OR NO CLOUDS BELOW 12000 FEET
WITH NO SIGNIFICANT WEATHER AND/OR OBSTRUCTIONS TO VISIBILITY

IDZ012-014-260400-
SOUTHWEST IDAHO


CITY           SKY/WX    TMP DP  RH WIND       PRES   REMARKS
BOISE          CLEAR     66  35  31 W3        30.36R
CALDWELL       CLEAR     64  38  38 S5        30.35S
MOUNTAIN HOME  CLEAR     64  33  31 NW5       30.37R
$$

IDZ016-017-260400-
SOUTHCENTRAL IDAHO


CITY           SKY/WX    TMP DP  RH WIND       PRES   REMARKS
BURLEY         CLEAR     50  43  77 S6        30.43R
JEROME         CLEAR     54  40  59 SE5       30.43S
TWIN FALLS     CLEAR     48  41  76 S6        30.44R
$$

IDZ019>023-260400-
SOUTHEAST IDAHO


CITY           SKY/WX    TMP DP  RH WIND       PRES   REMARKS
IDAHO FALLS    CLEAR     53  40  61 SW6       30.46R
POCATELLO      CLEAR     51  40  65 S8        30.46R
REXBURG        CLEAR     53  40  61 CALM      30.47R
$$

IDZ006-010-011-018-031-032-260400-
CENTRAL IDAHO MOUNTAINS


CITY           SKY/WX    TMP DP  RH WIND       PRES   REMARKS
MCCALL         CLEAR     62  39  42 N6        30.46R
HAILEY         CLEAR     52  45  76 NW3       30.49R
STANLEY          N/A     49  39  68 CALM      30.52R
SALMON         CLEAR     52  39  62 CALM      30.42R
CHALLIS        CLEAR     54  38  54 W5        30.45R
$$

IDZ002-004-006-007-026-260400-
NORTHERN IDAHO


CITY           SKY/WX    TMP DP  RH WIND       PRES   REMARKS
LEWISTON       CLEAR     70  36  28 SE5       30.32S
LOWELL           N/A     56  48  74 N5        30.40R
COEUR D`ALENE  NOT AVBL
MULLAN PASS    CLEAR     50  37  61 SW5       30.50S
$$




USA.gov is the U.S. government's official web portal to all federal, state and local government web resources and services.